Tracking 18840 objects as of 18-November-2017
HD Live streaming from Space Station
objects crossing your sky now

FENGYUN 1C DEB

Track FENGYUN 1C DEB now!
10-day predictions


NORAD ID: 35116
Int'l Code: 1999-025DKU
Perigee: 798.6 km
Apogee: 897.0 km
Inclination: 98.9 °
Period: 101.7 minutes
Semi major axis: 7218 km
RCS: 0.0063 m2 (small)
Launch date: May 10, 1999
Source: People's Republic of China (PRC)
Launch site: Taiyaun Space Center, China (TSC)

Note: This is SATELLITE DEBRIS
aabbcc
Your satellite tracking list
Your tracking list is empty




NASA's NSSDC Master Catalog

Two Line Element Set (TLE):
1 35116U 99025DKU 17321.33267755  .00000623  00000-0  33453-3 0  9995
2 35116  98.9360 351.9782 0068193 214.8158 144.8545 14.15490544478933
Source of the keplerian elements: AFSPC